SCP
0 0 0 0 0 0 0 0 0 0 0 0 0 0 0 0 0 0 0 0 0 0 0 0 0 0 0 0 0 0 0 0 0 0 0 0 0 0 0 0 0 0 0 0
0 0 0 0 0 0 0 0 0 0 0 0 0 0 0 0 0 0 0 0 0 0 0 0 0 0 0 0 0 0 0 0 0 0 0 0 0 0 0 0 0 0 0 0
0 0 0 0 0 0 0 0 0 0 0 0 0 0 0 0 0 0 0 0 0 0 0 0 0 0 0 0 0 0 0 0 0 0 0 0 0 0 0 0 0 0 0 0
0 0 0 0 0 0 0 0 0 0 0 0 0 0 0 0 0 0 0 -0 0 0 0 0 0 0 0 0 0 0 0 0 0 0 0 0 0 0 0 0 0 0 0 0
0 0 0 0 0 0 0 0 0 0 0 0 0 0 0 0 0 -0 -0 -0 0 0 0 0 0 0 0 0 0 0 0 0 0 0 0 0 0 0 0 0 0 0 0 0
0 0 0 0 0 0 0 0 0 0 0 0 0 0 0 0 0 0 0 0 0 0 0 0 0 0 0 0 0 0 0 0 0 0 0 0 0 0 0 0 0 0 0 0
0 0 0 0 0 0 0 0 0 0 0 0 0 0 0 0 0 0 0 0 0 0 0 0 0 0 0 0 0 0 0 0 0 0 0 0 0 0 0 0 0 0 0 0
0 0 0 0 0 0 0 0 0 0 0 0 0 0 0 0 0 0 0 0 0 0 0 0 0 0 0 0 0 0 0 0 0 0 0 0 0 0 0 0 0 0 0 0
0 0 0 0 0 0 0 0 0 0 0 0 0 0 0 0 0 0 0 0 0 0 0 0 0 0 0 0 0 0 0 0 0 0 0 0 0 0 0 0 0 0 0 0
0 0 0 0 0 0 0 0 0 0 0 0 0 0 0 0 0 0 0 0 0 0 0 0 0 0 0 0 0 0 0 0 0 0 0 0 0 0 0 0 0 0 0 0
0 0 0 0 0 0 0 0 0 0 0 0 0 0 0 0 0 0 0 0 0 0 0 0 0 0 0 0 0 0 0 0 0 0 0 0 0 0 0 0 0 0 0 0
0 0 0 0 0 0 0 0 0 0 0 0 0 0 0 0 0 0 0 0 0 0 0 0 0 0 0 0 0 0 0 0 0 0 0 0 0 0 0 0 0 0 0 0
0 0 0 0 0 0 0 0 0 0 0 0 0 0 0 0 0 0 0 0 0 0 0 0 0 0 0 0 0 0 0 0 0 0 0 0 0 0 0 0 0 0 0 0
0 0 0 0 0 0 0 0 0 0 0 0 0 0 0 0 0 0 0 0 0 0 0 0 0 0 0 0 0 0 0 0 0 0 0 0 0 0 0 0 0 0 0 0
0 0 0 0 0 0 0 0 0 0 0 0 0 0 0 0 0 0 0 0 0 0 0 0 0 0 0 0 0 0 0 0 0 0 0 0 0 0 0 0 0 0 0 0
0 0 0 0 0 0 0 0 0 0 0 0 0 0 0 0 0 0 0 0 0 0 0 0 0 0 0 0 0 0 0 0 0 0 0 0 0 0 0 0 0 0 0 0
0 0 0 0 0 0 0 0 0 0 0 0 0 0 0 0 0 0 0 0 0 0 0 0 0 0 0 0 0 0 0 0 0 0 0 0 0 0 0 0 0 0 0 0
0 0 0 0 0 0 0 0 0 0 0 0 0 0 0 0 0 0 0 0 0 0 0 0 0 0 0 0 0 0 0 0 0 0 0 0 0 0 0 0 0 0 0 0
0 0 0 0 0 0 0 0 0 0 0 0 0 0 0 0 0 0 0 0 0 0 0 0 0 0 0 0 0 0 0 0 0 0 0 0 0 0 0 0 0 0 0 0
0 0 0 0 0 0 0 0 0 0 0 0 0 0 0 0 0 0 0 0 0 0 0 0 0 0 0 0 0 0 0 0 0 0 0 0 0 0 0 0 0 0 0 0
0 0 0 0 0 0 0 0 0 0 0 0 0 0 0 0 0 0 0 0 0 0 0 0 0 0 0 0 0 0 0 0 0 0 0 0 0 0 0 0 0 0 0 0
0 0 0 0 0 0 0 0 0 0 0 0 0 0 0 0 0 0 0 0 0 0 0 0 0 0 0 0 0 0 0 0 0 0 0 0 0 0 0 0 0 0 0 0
0 0 0 0 0 0 0 0 0 0 0 0 0 0 0 0 0 0 0 0 0 0 0 0 0 0 0 0 0 0 0 0 0 0 0 0 0 0 0 0 0 0 0 0
0 0 0 0 0 0 0 0 0 0 0 0 0 0 0 0 0 0 0 0 0 0 0 0 0 0 0 0 0 0 0 0 0 0 0 0 0 0 0 0 0 0 0 0
0 0 0 0 0 0 0 0 0 0 0 0 0 0 0 0 0 0 0 0 0 0 0 0 0 0 0 0 0 0 0 0 0 0 0 0 0 0 0 0 0 0 0 0
0 0 0 0 0 0 0 0 0 0 0 0 0 0 0 0 0 0 0 0 0 0 0 0 0 0 0 0 0 0 0 0 0 0 0 0 0 0 0 0 0 0 0 0
0 0 0 0 0 0 0 0 0 0 0 0 0 0 0 0 0 0 0 0 0 0 0 0 0 0 0 0 0 0 0 0 0 0 0 0 0 0 0 0 0 0 0 0
Wind_Speed
12 9 7 10 12 13 15 15 13 13 14 13 9 7 6 5 3 3 3 4 4 5 4 4 5 5 5 5 5 5 5 5 5 4 4 4 4 4 4 4 4 4 4 4
8 8 9 12 14 15 17 17 18 18 17 10 8 5 5 4 3 4 4 4 4 4 4 5 5 5 5 5 5 5 5 5 4 4 4 4 4 3 3 3 3 4 4 4
7 4 6 12 11 13 12 10 10 13 11 7 5 5 5 5 4 5 4 4 5 5 4 4 5 4 5 5 4 4 4 4 4 4 4 4 4 4 4 4 4 4 4 5
4 4 11 3 1 5 8 8 8 8 6 5 6 5 5 5 5 5 4 4 4 4 4 3 4 4 4 4 4 5 4 4 4 4 4 4 4 4 4 4 4 4 4 5
5 7 10 4 2 4 6 5 4 7 8 6 5 4 3 3 4 5 4 4 4 4 3 3 4 4 4 4 4 4 4 4 4 4 4 4 4 4 4 4 4 4 4 4
6 7 8 2 1 1 3 4 1 4 5 4 3 4 3 4 4 4 3 2 2 2 3 3 3 4 5 5 5 5 5 4 4 4 4 4 4 4 3 4 4 3 4 4
9 9 6 2 1 3 4 1 2 2 2 2 3 4 5 5 4 3 3 2 1 2 2 2 3 4 4 4 5 4 3 3 3 4 4 4 3 3 3 3 3 3 4 4
7 8 7 2 3 3 2 3 2 1 2 2 4 4 4 4 3 3 2 2 1 1 1 1 2 4 4 4 3 3 3 3 3 3 2 3 3 3 3 3 3 3 3 3
5 4 2 1 1 1 2 2 2 3 3 3 3 4 4 4 3 3 2 2 1 1 1 1 2 3 4 3 2 3 3 4 3 3 3 3 3 3 3 3 3 3 3 3
3 3 3 2 2 3 3 3 4 4 3 2 3 4 4 3 3 3 2 1 1 1 2 2 2 2 3 3 3 4 4 3 3 3 3 3 3 3 3 3 4 3 3 3
6 5 3 2 4 5 4 4 4 4 4 4 4 4 3 3 3 3 2 2 1 2 2 2 2 2 2 2 3 3 3 3 3 3 3 3 3 3 4 4 4 4 4 4
5 4 4 5 5 4 4 4 4 4 4 4 3 4 3 3 2 2 2 1 1 1 2 2 2 2 2 2 3 3 3 3 2 2 2 3 2 2 4 6 6 7 7 7
6 5 6 7 6 6 5 5 5 4 4 4 4 3 3 3 2 2 2 2 2 2 3 3 2 2 2 2 2 3 4 3 3 3 3 3 3 3 3 3 5 7 8 8
5 5 6 6 6 5 5 5 4 4 3 3 3 3 2 2 2 2 3 3 3 2 3 3 3 3 3 2 2 3 3 3 3 3 3 3 4 4 3 3 3 3 4 7
4 4 5 4 4 4 3 3 3 3 3 3 3 2 2 2 3 3 3 3 2 3 3 3 3 4 3 2 3 3 3 3 3 3 3 3 3 3 4 4 4 4 3 4
4 3 2 3 4 4 4 3 3 4 4 3 3 3 3 3 3 3 3 2 2 3 3 4 4 4 3 3 3 3 3 4 4 3 3 3 3 4 4 4 4 4 4 3
3 3 4 4 4 5 5 4 5 5 4 4 4 4 3 3 3 3 3 3 4 4 4 4 4 4 3 3 3 3 3 3 4 3 3 3 4 4 4 4 4 4 4 4
3 3 4 4 5 5 5 5 5 5 4 4 4 4 4 4 4 4 4 4 4 4 5 4 4 3 3 3 3 3 3 3 3 3 3 3 4 4 4 4 5 5 4 4
5 5 5 4 4 4 5 5 5 5 4 4 4 4 4 5 5 5 4 4 4 5 5 4 4 4 4 4 3 3 3 3 3 3 4 5 5 4 4 5 5 5 5 4
6 5 5 5 5 4 4 5 5 4 4 4 4 4 5 5 4 4 4 5 4 4 5 5 4 4 4 4 4 3 4 4 4 4 4 4 5 5 5 5 5 5 5 5
6 6 6 6 6 5 5 5 5 5 5 4 4 5 5 6 5 4 4 5 4 4 5 5 4 3 3 4 4 4 4 4 4 5 5 5 5 5 5 5 5 5 5 5
6 6 7 6 6 6 5 5 4 5 5 5 5 5 5 5 5 4 5 4 4 5 5 4 4 5 5 6 4 4 4 5 4 4 4 5 5 5 5 5 5 5 5 5
6 6 6 6 6 7 6 5 5 5 5 5 5 5 5 5 4 4 5 3 3 5 5 4 6 8 9 5 4 4 5 5 5 5 5 4 5 5 5 5 5 5 5 5
7 6 6 6 6 6 6 6 5 5 5 6 5 5 5 5 4 4 4 6 7 8 5 6 9 9 8 4 4 4 4 5 5 5 5 5 5 5 5 5 5 5 5 6
7 6 6 6 6 5 6 6 6 5 5 4 5 5 4 3 4 4 5 5 7 8 5 6 9 9 6 4 4 4 4 5 5 5 5 5 5 5 5 5 5 5 5 5
6 6 5 6 5 5 5 4 4 4 4 5 5 4 4 4 4 5 4 5 6 7 6 5 5 6 4 4 5 5 5 5 5 5 5 5 5 5 5 5 6 5 5 5
6 5 5 5 4 4 4 4 5 5 5 5 6 5 5 5 4 5 5 5 5 5 5 5 4 4 4 4 5 5 5 5 5 5 5 5 5 5 5 6 5 5 5 5
Wind_Direction
259 263 246 242 233 218 219 230 244 257 263 276 290 295 298 302 295 272 249 237 220 208 203 199 195 196 189 187 183 181 183 186 194 201 202 203 202 200 199 206 213 214 216 222
258 250 248 256 248 234 233 239 247 261 270 284 292 291 292 292 279 258 249 242 233 222 209 201 200 195 185 184 182 183 188 190 190 194 196 203 205 203 205 212 217 220 225 227
255 255 269 257 242 227 222 227 234 246 261 279 275 281 286 283 271 264 255 240 231 223 214 208 203 195 188 182 177 185 190 189 191 196 203 209 206 206 213 219 221 226 231 232
252 237 241 252 92 209 216 229 227 247 274 280 278 286 289 278 274 270 263 244 231 224 215 209 200 193 185 178 182 187 190 192 196 202 207 209 211 217 221 224 226 232 236 239
218 238 261 266 183 190 209 236 239 251 270 288 297 283 279 296 287 277 274 257 239 226 213 205 197 188 182 185 188 192 198 198 200 204 204 206 215 223 225 226 232 236 240 242
218 232 245 290 31 242 192 229 289 265 276 292 292 267 302 331 305 290 285 268 239 217 196 196 193 184 186 191 195 205 207 206 204 201 202 207 215 223 225 226 233 235 238 242
225 237 256 327 13 164 206 300 2 288 280 271 270 294 321 317 311 304 298 287 252 214 206 206 192 185 192 200 213 217 209 200 203 204 205 209 210 217 215 216 222 229 238 245
216 229 243 74 126 187 317 12 356 331 312 297 299 311 310 313 318 319 318 309 263 218 224 221 199 194 201 217 221 207 201 204 209 210 204 205 207 211 213 213 219 228 235 244
214 229 8 130 196 309 338 330 334 327 318 311 305 304 308 313 320 324 325 305 270 218 220 232 219 211 212 222 208 199 203 207 207 206 206 203 205 208 210 212 222 231 235 242
251 264 299 303 300 321 315 312 318 318 314 307 307 310 307 308 308 310 311 294 269 238 233 250 249 242 231 215 202 201 210 211 206 207 210 209 209 209 215 215 220 228 236 244
261 279 304 285 296 313 320 319 318 317 310 303 305 304 303 305 303 301 301 299 279 256 255 267 272 268 260 226 205 208 216 219 218 219 218 218 222 227 228 232 233 234 239 242
256 265 272 290 310 312 305 306 302 305 313 312 306 303 309 308 310 312 311 306 289 279 278 280 277 278 276 250 226 216 219 223 226 224 224 225 230 249 244 242 249 250 251 251
268 282 278 284 294 300 300 306 304 302 302 313 321 317 311 314 317 318 310 298 286 283 284 284 281 279 273 253 232 227 228 229 230 230 231 232 232 239 258 255 240 244 246 247
284 282 275 282 291 305 306 306 308 314 316 317 324 327 318 313 313 311 305 301 299 293 289 289 287 283 280 252 234 237 240 239 235 234 232 233 234 237 241 248 259 259 246 245
296 287 280 298 316 327 329 332 333 324 323 330 335 331 319 305 300 300 303 304 301 295 292 290 287 289 290 265 248 247 246 243 238 239 236 235 236 237 240 243 248 255 260 252
306 308 302 300 304 314 325 324 311 305 309 313 316 314 308 302 301 302 302 300 287 286 288 287 285 290 289 271 262 259 254 249 247 246 244 240 237 237 239 242 247 250 252 254
332 329 324 318 313 312 307 299 293 294 294 292 296 302 308 308 307 306 303 295 283 280 281 278 279 286 278 266 263 263 262 257 244 243 244 245 245 244 245 246 249 254 257 257
328 316 311 302 301 303 305 306 300 297 295 295 299 297 296 293 292 295 298 297 292 289 283 276 276 276 272 268 266 262 256 255 251 248 248 246 248 248 248 250 252 256 260 259
350 342 336 331 321 312 309 306 302 301 302 302 297 293 291 285 285 290 293 289 284 285 291 294 289 281 276 270 267 259 254 254 255 252 249 249 250 249 248 248 252 255 258 258
348 346 344 341 339 332 324 321 315 308 306 305 299 295 293 292 291 289 286 278 271 279 291 292 287 280 275 269 265 259 254 253 253 253 250 247 248 250 249 249 252 255 256 256
338 338 337 335 332 329 322 319 315 309 310 307 296 292 294 297 293 284 279 284 295 302 295 287 283 282 280 277 271 264 258 256 254 252 252 252 252 252 252 251 252 254 255 256
328 326 325 325 324 321 320 314 305 301 302 300 297 294 294 295 295 287 273 273 290 305 306 295 292 290 291 287 273 266 263 260 259 258 256 255 254 254 255 255 255 256 256 258
320 319 320 321 319 316 316 313 307 302 300 300 299 296 292 291 291 286 290 299 303 305 304 293 296 297 296 291 277 269 265 262 260 258 257 257 257 258 259 259 260 259 259 260
319 319 318 318 318 315 314 316 316 309 304 300 295 292 291 292 291 282 283 293 300 303 298 295 299 298 297 287 278 273 270 268 266 264 262 260 258 258 258 260 262 263 263 263
318 315 315 317 316 313 312 316 317 316 314 308 304 302 294 285 285 295 298 296 300 304 300 298 300 301 297 286 280 276 273 268 267 267 262 259 258 258 259 259 260 263 265 264
318 315 312 311 310 311 314 317 316 317 316 313 312 311 309 304 297 294 294 295 297 300 299 296 297 297 289 283 280 278 277 277 275 269 264 264 263 262 261 262 264 263 264 265
324 323 320 321 323 323 320 316 312 312 313 310 307 308 309 309 306 306 304 302 302 301 298 295 293 291 288 285 283 282 279 276 273 270 267 264 262 261 262 263 265 265 265 265